| time (UTC) | temp F | wind direction | speed MPH | gust MPH | rain 1hr in | rain 24hr in | rain mn in | humidity % | barometer mb |
| 20260905095447 | 80 | 231 | 3.0 | 4.0 | 0.00 | 0.00 | 0.00 | 75 | 1013.3 |
| 20260905094929 | 80 | 231 | 3.0 | 4.0 | 0.00 | 0.00 | 0.00 | 75 | 1013.3 |
| 20260905094432 | 80 | 231 | 3.0 | 4.0 | 0.00 | 0.00 | 0.00 | 75 | 1013.3 |
| 20260905093934 | 80 | 231 | 2.0 | 4.0 | 0.00 | 0.00 | 0.00 | 74 | 1013.2 |
| 20260905093435 | 80 | 231 | 2.0 | 4.0 | 0.00 | 0.00 | 0.00 | 74 | 1013.2 |
| 20260905092947 | 80 | 230 | 1.0 | 4.0 | 0.00 | 0.00 | 0.00 | 73 | 1013.0 |
| 20260905092434 | 81 | 230 | 3.0 | 4.0 | 0.00 | 0.00 | 0.00 | 72 | 1013.0 |
| 20260905091926 | 81 | 229 | 3.0 | 4.0 | 0.00 | 0.00 | 0.00 | 72 | 1012.9 |
| 20260905091435 | 81 | 229 | 1.0 | 3.0 | 0.00 | 0.00 | 0.00 | 72 | 1012.9 |
| 20260905090944 | 81 | 229 | 1.0 | 3.0 | 0.00 | 0.00 | 0.00 | 73 | 1013.0 |
| 20260905090434 | 81 | 228 | 1.0 | 3.0 | 0.00 | 0.00 | 0.00 | 73 | 1012.9 |
| 20260905085936 | 81 | 228 | 1.0 | 3.0 | 0.00 | 0.00 | 0.00 | 73 | 1013.0 |
| 20260905085442 | 81 | 228 | 1.0 | 3.0 | 0.00 | 0.00 | 0.00 | 73 | 1013.0 |
| 20260905084926 | 81 | 228 | 2.0 | 3.0 | 0.00 | 0.00 | 0.00 | 73 | 1012.9 |
| 20260905084437 | 81 | 227 | 2.0 | 3.0 | 0.00 | 0.00 | 0.00 | 72 | 1012.9 |
| 20260905083940 | 81 | 227 | 2.0 | 3.0 | 0.00 | 0.00 | 0.00 | 72 | 1013.0 |
| 20260905083428 | 81 | 227 | 2.0 | 4.0 | 0.00 | 0.00 | 0.00 | 71 | 1012.9 |
| 20260905083006 | 81 | 227 | 2.0 | 4.0 | 0.00 | 0.00 | 0.00 | 71 | 1013.0 |
| 20260905082449 | 81 | 227 | 2.0 | 4.0 | 0.00 | 0.00 | 0.00 | 71 | 1012.8 |
| 20260905081957 | 81 | 227 | 2.0 | 4.0 | 0.00 | 0.00 | 0.00 | 71 | 1012.7 |
| 20260905081441 | 81 | 227 | 2.0 | 6.0 | 0.00 | 0.00 | 0.00 | 71 | 1012.8 |
| 20260905080949 | 81 | 226 | 4.0 | 6.0 | 0.00 | 0.00 | 0.00 | 70 | 1012.8 |
| 20260905080435 | 82 | 226 | 2.0 | 4.0 | 0.00 | 0.00 | 0.00 | 69 | 1012.7 |
| 20260905080007 | 83 | 226 | 2.0 | 4.0 | 0.00 | 0.00 | 0.00 | 68 | 1012.8 |
| 20260905075444 | 83 | 224 | 2.0 | 4.0 | 0.00 | 0.00 | 0.00 | 66 | 1012.8 |
| 20260905074953 | 83 | 224 | 2.0 | 5.0 | 0.00 | 0.00 | 0.00 | 66 | 1012.7 |
| 20260905074442 | 83 | 224 | 3.0 | 5.0 | 0.00 | 0.00 | 0.00 | 66 | 1012.8 |
| 20260905073950 | 83 | 222 | 1.0 | 2.0 | 0.00 | 0.00 | 0.00 | 66 | 1012.9 |
| 20260905073440 | 83 | 222 | 1.0 | 3.0 | 0.00 | 0.00 | 0.00 | 66 | 1012.9 |
| 20260905072945 | 83 | 220 | 1.0 | 3.0 | 0.00 | 0.00 | 0.00 | 66 | 1012.9 |
| 20260905072430 | 83 | 220 | 1.0 | 3.0 | 0.00 | 0.00 | 0.00 | 65 | 1013.0 |
| 20260905071943 | 84 | 220 | 2.0 | 4.0 | 0.00 | 0.00 | 0.00 | 65 | 1013.1 |
| 20260905071430 | 84 | 219 | 2.0 | 5.0 | 0.00 | 0.00 | 0.00 | 64 | 1013.1 |
| 20260905070936 | 84 | 217 | 3.0 | 5.0 | 0.00 | 0.00 | 0.00 | 64 | 1013.1 |
| 20260905070442 | 84 | 212 | 3.0 | 5.0 | 0.00 | 0.00 | 0.00 | 65 | 1013.2 |
| 20260905065927 | 85 | 210 | 3.0 | 8.0 | 0.00 | 0.00 | 0.00 | 64 | 1013.0 |
| 20260905065433 | 85 | 214 | 5.0 | 9.0 | 0.00 | 0.00 | 0.00 | 64 | 1013.1 |
| 20260905064940 | 85 | 210 | 4.0 | 9.0 | 0.00 | 0.00 | 0.00 | 63 | 1013.1 |
| 20260905064433 | 85 | 200 | 5.0 | 7.0 | 0.00 | 0.00 | 0.00 | 63 | 1013.2 |
| 20260905063939 | 85 | 206 | 3.0 | 7.0 | 0.00 | 0.00 | 0.00 | 63 | 1013.2 |
| 20260905063429 | 85 | 205 | 3.0 | 9.0 | 0.00 | 0.00 | 0.00 | 62 | 1013.2 |
| 20260905062939 | 86 | 214 | 5.0 | 9.0 | 0.00 | 0.00 | 0.00 | 61 | 1013.2 |
| 20260905062444 | 86 | 199 | 4.0 | 8.0 | 0.00 | 0.00 | 0.00 | 61 | 1013.2 |
| 20260905061929 | 86 | 201 | 4.0 | 7.0 | 0.00 | 0.00 | 0.00 | 61 | 1013.2 |
| 20260905061436 | 86 | 208 | 3.0 | 9.0 | 0.00 | 0.00 | 0.00 | 61 | 1013.1 |
| 20260905060943 | 86 | 205 | 5.0 | 10.0 | 0.00 | 0.00 | 0.00 | 60 | 1013.2 |
| 20260905060429 | 86 | 187 | 4.0 | 10.0 | 0.00 | 0.00 | 0.00 | 60 | 1013.2 |
| 20260905060003 | 86 | 201 | 4.0 | 9.0 | 0.00 | 0.00 | 0.00 | 60 | 1013.2 |
| 20260905055440 | 86 | 198 | 4.0 | 9.0 | 0.00 | 0.00 | 0.00 | 60 | 1013.1 |
| 20260905054953 | 87 | 184 | 4.0 | 11.0 | 0.00 | 0.00 | 0.00 | 60 | 1013.1 |
| 20260905054435 | 87 | 191 | 5.0 | 11.0 | 0.00 | 0.00 | 0.00 | 60 | 1013.0 |
| 20260905053940 | 87 | 181 | 5.0 | 12.0 | 0.00 | 0.00 | 0.00 | 59 | 1013.0 |
| 20260905053426 | 87 | 144 | 6.0 | 12.0 | 0.00 | 0.00 | 0.00 | 59 | 1012.9 |
| 20260905052937 | 87 | 197 | 6.0 | 11.0 | 0.00 | 0.00 | 0.00 | 58 | 1012.9 |
| 20260905052442 | 87 | 183 | 7.0 | 10.0 | 0.00 | 0.00 | 0.00 | 57 | 1012.8 |
| 20260905051927 | 87 | 197 | 4.0 | 10.0 | 0.00 | 0.00 | 0.00 | 57 | 1012.9 |
| 20260905051439 | 88 | 153 | 4.0 | 8.0 | 0.00 | 0.00 | 0.00 | 57 | 1012.8 |
| 20260905050944 | 88 | 187 | 4.0 | 8.0 | 0.00 | 0.00 | 0.00 | 57 | 1012.8 |
| 20260905050428 | 88 | 186 | 3.0 | 12.0 | 0.00 | 0.00 | 0.00 | 56 | 1012.8 |
| 20260905045935 | 88 | 195 | 6.0 | 12.0 | 0.00 | 0.00 | 0.00 | 56 | 1012.8 |
| 20260905045444 | 88 | 194 | 3.0 | 10.0 | 0.00 | 0.00 | 0.00 | 56 | 1012.8 |
| 20260905044931 | 88 | 206 | 3.0 | 10.0 | 0.00 | 0.00 | 0.00 | 56 | 1012.7 |
| 20260905044435 | 88 | 200 | 3.0 | 11.0 | 0.00 | 0.00 | 0.00 | 55 | 1012.7 |
| 20260905043948 | 89 | 210 | 5.0 | 11.0 | 0.00 | 0.00 | 0.00 | 55 | 1012.8 |
| 20260905043458 | 89 | 206 | 4.0 | 13.0 | 0.00 | 0.00 | 0.00 | 55 | 1012.8 |
| 20260905042927 | 89 | 178 | 7.0 | 13.0 | 0.00 | 0.00 | 0.00 | 54 | 1012.8 |
| 20260905042434 | 89 | 172 | 6.0 | 11.0 | 0.00 | 0.00 | 0.00 | 54 | 1012.7 |
| 20260905041952 | 89 | 173 | 7.0 | 12.0 | 0.00 | 0.00 | 0.00 | 54 | 1012.7 |
| 20260905041459 | 89 | 195 | 5.0 | 12.0 | 0.00 | 0.00 | 0.00 | 53 | 1012.7 |
| 20260905040930 | 90 | 148 | 7.0 | 11.0 | 0.00 | 0.00 | 0.00 | 53 | 1012.7 |
| 20260905040453 | 90 | 195 | 8.0 | 13.0 | 0.00 | 0.00 | 0.00 | 53 | 1012.6 |
| 20260905035943 | 90 | 193 | 7.0 | 13.0 | 0.00 | 0.00 | 0.00 | 52 | 1012.7 |
| 20260905035445 | 90 | 177 | 6.0 | 12.0 | 0.00 | 0.00 | 0.00 | 52 | 1012.7 |
| 20260905034934 | 90 | 131 | 6.0 | 11.0 | 0.00 | 0.00 | 0.00 | 52 | 1012.6 |
| 20260905034443 | 90 | 158 | 6.0 | 13.0 | 0.00 | 0.00 | 0.00 | 51 | 1012.7 |
| 20260905033933 | 91 | 153 | 7.0 | 13.0 | 0.00 | 0.00 | 0.00 | 51 | 1012.7 |
| 20260905033442 | 91 | 135 | 6.0 | 12.0 | 0.00 | 0.00 | 0.00 | 51 | 1012.7 |
| 20260905032930 | 91 | 148 | 7.0 | 11.0 | 0.00 | 0.00 | 0.00 | 50 | 1012.7 |
| 20260905032441 | 91 | 112 | 7.0 | 11.0 | 0.00 | 0.00 | 0.00 | 50 | 1012.7 |
| 20260905031925 | 91 | 144 | 6.0 | 11.0 | 0.00 | 0.00 | 0.00 | 49 | 1012.6 |
| 20260905031432 | 91 | 126 | 4.0 | 9.0 | 0.00 | 0.00 | 0.00 | 48 | 1012.5 |
| 20260905030943 | 91 | 122 | 5.0 | 9.0 | 0.00 | 0.00 | 0.00 | 48 | 1012.5 |
| 20260905030451 | 91 | 124 | 5.0 | 9.0 | 0.00 | 0.00 | 0.00 | 48 | 1012.5 |
| 20260905025939 | 91 | 126 | 4.0 | 9.0 | 0.00 | 0.00 | 0.00 | 47 | 1012.4 |
| 20260905025444 | 91 | 139 | 4.0 | 9.0 | 0.00 | 0.00 | 0.00 | 47 | 1012.4 |
| 20260905024932 | 91 | 124 | 5.0 | 9.0 | 0.00 | 0.00 | 0.00 | 47 | 1012.3 |
| 20260905024441 | 91 | 129 | 5.0 | 8.0 | 0.00 | 0.00 | 0.00 | 47 | 1012.3 |
| 20260905023929 | 92 | 122 | 5.0 | 11.0 | 0.00 | 0.00 | 0.00 | 47 | 1012.2 |
| 20260905023433 | 92 | 122 | 6.0 | 11.0 | 0.00 | 0.00 | 0.00 | 47 | 1012.3 |
| 20260905023007 | 92 | 131 | 6.0 | 12.0 | 0.00 | 0.00 | 0.00 | 47 | 1012.1 |
| 20260905022432 | 92 | 122 | 8.0 | 12.0 | 0.00 | 0.00 | 0.00 | 47 | 1012.0 |
| 20260905022001 | 92 | 115 | 7.0 | 11.0 | 0.00 | 0.00 | 0.00 | 47 | 1011.9 |
| 20260905021430 | 92 | 137 | 5.0 | 12.0 | 0.00 | 0.00 | 0.00 | 47 | 1011.9 |
| 20260905021001 | 92 | 123 | 7.0 | 12.0 | 0.00 | 0.00 | 0.00 | 47 | 1011.8 |
| 20260905020428 | 93 | 125 | 6.0 | 12.0 | 0.00 | 0.00 | 0.00 | 46 | 1011.7 |
| 20260905015933 | 93 | 116 | 7.0 | 13.0 | 0.00 | 0.00 | 0.00 | 46 | 1011.7 |
| 20260905015441 | 93 | 127 | 8.0 | 13.0 | 0.00 | 0.00 | 0.00 | 47 | 1011.5 |
| 20260905014932 | 93 | 112 | 6.0 | 14.0 | 0.00 | 0.00 | 0.00 | 46 | 1011.4 |
| 20260905014438 | 93 | 114 | 5.0 | 14.0 | 0.00 | 0.00 | 0.00 | 46 | 1011.4 |
| 20260905013946 | 93 | 129 | 8.0 | 15.0 | 0.00 | 0.00 | 0.00 | 46 | 1011.3 |
| 20260905013434 | 93 | 118 | 8.0 | 15.0 | 0.00 | 0.00 | 0.00 | 46 | 1011.2 |
| 20260905012938 | 93 | 115 | 7.0 | 15.0 | 0.00 | 0.00 | 0.00 | 46 | 1011.2 |
| 20260905012447 | 94 | 106 | 7.0 | 15.0 | 0.00 | 0.00 | 0.00 | 46 | 1011.1 |
| 20260905011949 | 94 | 131 | 7.0 | 14.0 | 0.00 | 0.00 | 0.00 | 46 | 1011.1 |
| 20260905011435 | 94 | 102 | 9.0 | 14.0 | 0.00 | 0.00 | 0.00 | 45 | 1011.0 |
| 20260905010942 | 94 | 112 | 7.0 | 13.0 | 0.00 | 0.00 | 0.00 | 45 | 1011.0 |
| 20260905010432 | 94 | 108 | 9.0 | 13.0 | 0.00 | 0.00 | 0.00 | 45 | 1011.0 |
| 20260905010004 | 94 | 121 | 6.0 | 11.0 | 0.00 | 0.00 | 0.00 | 45 | 1011.0 |
| 20260905005432 | 95 | 121 | 5.0 | 12.0 | 0.00 | 0.00 | 0.00 | 45 | 1010.9 |
| 20260905004945 | 95 | 112 | 7.0 | 12.0 | 0.00 | 0.00 | 0.00 | 44 | 1010.7 |
| 20260905004449 | 95 | 114 | 6.0 | 11.0 | 0.00 | 0.00 | 0.00 | 44 | 1010.6 |
| 20260905003935 | 95 | 114 | 6.0 | 13.0 | 0.00 | 0.00 | 0.00 | 43 | 1010.5 |
| 20260905003444 | 96 | 91 | 10.0 | 14.0 | 0.00 | 0.00 | 0.00 | 43 | 1010.5 |
| 20260905002930 | 96 | 118 | 7.0 | 14.0 | 0.00 | 0.00 | 0.00 | 42 | 1010.4 |
| 20260905002432 | 96 | 137 | 6.0 | 14.0 | 0.00 | 0.00 | 0.00 | 42 | 1010.4 |
| 20260905002006 | 97 | 108 | 9.0 | 14.0 | 0.00 | 0.00 | 0.00 | 41 | 1010.4 |
| 20260905001432 | 97 | 118 | 4.0 | 11.0 | 0.00 | 0.00 | 0.00 | 40 | 1010.3 |
| 20260905000941 | 97 | 130 | 6.0 | 10.0 | 0.00 | 0.00 | 0.00 | 39 | 1010.4 |
| 20260905000427 | 98 | 123 | 3.0 | 11.0 | 0.00 | 0.00 | 0.00 | 39 | 1010.3 |
| 20260904235933 | 98 | 122 | 6.0 | 11.0 | 0.00 | 0.00 | 0.00 | 38 | 1010.3 |
| 20260904235441 | 98 | 122 | 6.0 | 11.0 | 0.00 | 0.00 | 0.00 | 38 | 1010.3 |
| 20260904234944 | 98 | 166 | 4.0 | 10.0 | 0.00 | 0.00 | 0.00 | 38 | 1010.3 |
| 20260904234432 | 98 | 113 | 6.0 | 10.0 | 0.00 | 0.00 | 0.00 | 38 | 1010.2 |
| 20260904233938 | 98 | 120 | 5.0 | 10.0 | 0.00 | 0.00 | 0.00 | 38 | 1010.3 |
| 20260904233446 | 98 | 111 | 8.0 | 10.0 | 0.00 | 0.00 | 0.00 | 37 | 1010.4 |
| 20260904232932 | 98 | 135 | 6.0 | 10.0 | 0.00 | 0.00 | 0.00 | 37 | 1010.3 |
| 20260904232437 | 98 | 124 | 6.0 | 11.0 | 0.00 | 0.00 | 0.00 | 38 | 1010.2 |
| 20260904231944 | 99 | 114 | 8.0 | 11.0 | 0.00 | 0.00 | 0.00 | 37 | 1010.3 |
| 20260904231448 | 99 | 153 | 3.0 | 10.0 | 0.00 | 0.00 | 0.00 | 37 | 1010.3 |
| 20260904230936 | 99 | 133 | 5.0 | 10.0 | 0.00 | 0.00 | 0.00 | 38 | 1010.5 |
| 20260904230441 | 99 | 121 | 3.0 | 9.0 | 0.00 | 0.00 | 0.00 | 38 | 1010.4 |
| 20260904225930 | 99 | 193 | 5.0 | 10.0 | 0.00 | 0.00 | 0.00 | 38 | 1010.3 |
| 20260904225438 | 99 | 137 | 4.0 | 13.0 | 0.00 | 0.00 | 0.00 | 38 | 1010.3 |
| 20260904224939 | 99 | 114 | 7.0 | 16.0 | 0.00 | 0.00 | 0.00 | 38 | 1010.4 |
| 20260904224445 | 100 | 102 | 9.0 | 16.0 | 0.00 | 0.00 | 0.00 | 37 | 1010.3 |
| 20260904224013 | 99 | 110 | 2.0 | 12.0 | 0.00 | 0.00 | 0.00 | 37 | 1010.4 |
| 20260904223440 | 100 | 110 | 5.0 | 12.0 | 0.00 | 0.00 | 0.00 | 38 | 1010.5 |
| 20260904222943 | 99 | 133 | 6.0 | 10.0 | 0.00 | 0.00 | 0.00 | 38 | 1010.5 |
| 20260904222430 | 99 | 208 | 3.0 | 11.0 | 0.00 | 0.00 | 0.00 | 38 | 1010.5 |
| 20260904221933 | 99 | 180 | 4.0 | 11.0 | 0.00 | 0.00 | 0.00 | 38 | 1010.6 |
| 20260904221438 | 100 | 179 | 6.0 | 13.0 | 0.00 | 0.00 | 0.00 | 38 | 1010.7 |
| 20260904220942 | 99 | 148 | 6.0 | 13.0 | 0.00 | 0.00 | 0.00 | 38 | 1010.6 |
| 20260904220429 | 100 | 189 | 5.0 | 13.0 | 0.00 | 0.00 | 0.00 | 38 | 1010.6 |
| 20260904215941 | 100 | 113 | 5.0 | 16.0 | 0.00 | 0.00 | 0.00 | 38 | 1010.6 |
| 20260904215445 | 100 | 120 | 9.0 | 16.0 | 0.00 | 0.00 | 0.00 | 38 | 1010.6 |
| 20260904214929 | 100 | 127 | 5.0 | 12.0 | 0.00 | 0.00 | 0.00 | 38 | 1010.8 |
| 20260904214436 | 99 | 175 | 6.0 | 9.0 | 0.00 | 0.00 | 0.00 | 38 | 1010.8 |
| 20260904214015 | 100 | 205 | 4.0 | 11.0 | 0.00 | 0.00 | 0.00 | 37 | 1010.8 |
| 20260904213451 | 100 | 126 | 5.0 | 13.0 | 0.00 | 0.00 | 0.00 | 38 | 1010.8 |
| 20260904212958 | 99 | 105 | 6.0 | 13.0 | 0.00 | 0.00 | 0.00 | 38 | 1010.9 |
| 20260904212445 | 100 | 119 | 5.0 | 10.0 | 0.00 | 0.00 | 0.00 | 38 | 1010.9 |
| 20260904211932 | 100 | 158 | 3.0 | 13.0 | 0.00 | 0.00 | 0.00 | 39 | 1011.0 |
| 20260904211435 | 100 | 170 | 7.0 | 13.0 | 0.00 | 0.00 | 0.00 | 38 | 1011.0 |
| 20260904211003 | 99 | 153 | 3.0 | 9.0 | 0.00 | 0.00 | 0.00 | 40 | 1011.2 |
| 20260904210441 | 99 | 179 | 5.0 | 12.0 | 0.00 | 0.00 | 0.00 | 40 | 1011.2 |
| 20260904205930 | 99 | 153 | 5.0 | 12.0 | 0.00 | 0.00 | 0.00 | 39 | 1011.2 |
| 20260904205437 | 99 | 169 | 7.0 | 13.0 | 0.00 | 0.00 | 0.00 | 40 | 1011.4 |
| 20260904204944 | 99 | 180 | 4.0 | 13.0 | 0.00 | 0.00 | 0.00 | 41 | 1011.4 |
| 20260904204426 | 99 | 122 | 7.0 | 13.0 | 0.00 | 0.00 | 0.00 | 43 | 1011.4 |
| 20260904203933 | 99 | 183 | 4.0 | 10.0 | 0.00 | 0.00 | 0.00 | 42 | 1011.5 |
| 20260904203441 | 98 | 137 | 6.0 | 10.0 | 0.00 | 0.00 | 0.00 | 42 | 1011.6 |
| 20260904202933 | 99 | 125 | 8.0 | 12.0 | 0.00 | 0.00 | 0.00 | 41 | 1011.6 |
| 20260904202453 | 98 | 113 | 6.0 | 16.0 | 0.00 | 0.00 | 0.00 | 42 | 1011.7 |
| 20260904201944 | 99 | 116 | 8.0 | 16.0 | 0.00 | 0.00 | 0.00 | 42 | 1011.7 |
| 20260904201431 | 99 | 116 | 5.0 | 11.0 | 0.00 | 0.00 | 0.00 | 41 | 1011.9 |
| 20260904201006 | 99 | 206 | 6.0 | 14.0 | 0.00 | 0.00 | 0.00 | 40 | 1012.0 |
| 20260904200432 | 97 | 165 | 6.0 | 14.0 | 0.00 | 0.00 | 0.00 | 43 | 1012.1 |
| 20260904195935 | 97 | 113 | 6.0 | 17.0 | 0.00 | 0.00 | 0.00 | 44 | 1012.0 |
| 20260904195438 | 97 | 97 | 11.0 | 17.0 | 0.00 | 0.00 | 0.00 | 43 | 1012.1 |
| 20260904194942 | 98 | 111 | 9.0 | 13.0 | 0.00 | 0.00 | 0.00 | 43 | 1012.2 |
| 20260904194428 | 98 | 178 | 3.0 | 11.0 | 0.00 | 0.00 | 0.00 | 43 | 1012.3 |
| 20260904193936 | 98 | 124 | 7.0 | 13.0 | 0.00 | 0.00 | 0.00 | 44 | 1012.4 |
| 20260904193442 | 98 | 214 | 10.0 | 13.0 | 0.00 | 0.00 | 0.00 | 43 | 1012.4 |
| 20260904192933 | 98 | 194 | 6.0 | 11.0 | 0.00 | 0.00 | 0.00 | 43 | 1012.5 |
| 20260904192501 | 98 | 179 | 6.0 | 11.0 | 0.00 | 0.00 | 0.00 | 44 | 1012.6 |
| 20260904191929 | 97 | 153 | 2.0 | 16.0 | 0.00 | 0.00 | 0.00 | 44 | 1012.5 |
| 20260904191429 | 97 | 112 | 9.0 | 16.0 | 0.00 | 0.00 | 0.00 | 43 | 1012.6 |
| 20260904190937 | 97 | 103 | 10.0 | 14.0 | 0.00 | 0.00 | 0.00 | 43 | 1012.7 |
| 20260904190446 | 97 | 118 | 7.0 | 15.0 | 0.00 | 0.00 | 0.00 | 42 | 1012.7 |
| 20260904185953 | 97 | 172 | 9.0 | 15.0 | 0.00 | 0.00 | 0.00 | 42 | 1012.8 |
| 20260904185440 | 97 | 131 | 9.0 | 13.0 | 0.00 | 0.00 | 0.00 | 43 | 1012.8 |
| 20260904184943 | 96 | 219 | 5.0 | 7.0 | 0.00 | 0.00 | 0.00 | 45 | 1013.0 |
| 20260904184428 | 96 | 143 | 5.0 | 14.0 | 0.00 | 0.00 | 0.00 | 44 | 1013.0 |
| 20260904183932 | 96 | 206 | 8.0 | 17.0 | 0.00 | 0.00 | 0.00 | 44 | 1013.2 |
| 20260904183433 | 95 | 153 | 4.0 | 17.0 | 0.00 | 0.00 | 0.00 | 46 | 1013.1 |
| 20260904182924 | 95 | 135 | 5.0 | 11.0 | 0.00 | 0.00 | 0.00 | 46 | 1013.1 |
| 20260904182503 | 95 | 97 | 5.0 | 11.0 | 0.00 | 0.00 | 0.00 | 47 | 1013.3 |
| 20260904181949 | 95 | 188 | 6.0 | 12.0 | 0.00 | 0.00 | 0.00 | 48 | 1013.3 |
| 20260904181429 | 95 | 191 | 7.0 | 12.0 | 0.00 | 0.00 | 0.00 | 48 | 1013.4 |
| 20260904180947 | 94 | 204 | 3.0 | 10.0 | 0.00 | 0.00 | 0.00 | 49 | 1013.5 |
| 20260904180430 | 94 | 189 | 5.0 | 11.0 | 0.00 | 0.00 | 0.00 | 49 | 1013.5 |
| 20260904175938 | 93 | 209 | 5.0 | 14.0 | 0.00 | 0.00 | 0.00 | 50 | 1013.5 |
| 20260904175446 | 93 | 202 | 6.0 | 14.0 | 0.00 | 0.00 | 0.00 | 50 | 1013.6 |
| 20260904174928 | 92 | 123 | 2.0 | 12.0 | 0.00 | 0.00 | 0.00 | 52 | 1013.8 |
| 20260904174438 | 92 | 183 | 6.0 | 12.0 | 0.00 | 0.00 | 0.00 | 51 | 1013.8 |
| 20260904173930 | 92 | 131 | 4.0 | 9.0 | 0.00 | 0.00 | 0.00 | 50 | 1013.9 |
| 20260904173450 | 91 | 225 | 6.0 | 9.0 | 0.00 | 0.00 | 0.00 | 51 | 1013.9 |
| 20260904172935 | 91 | 175 | 4.0 | 12.0 | 0.00 | 0.00 | 0.00 | 50 | 1013.9 |
| 20260904172443 | 92 | 188 | 6.0 | 16.0 | 0.00 | 0.00 | 0.00 | 49 | 1014.2 |
| 20260904171928 | 92 | 194 | 8.0 | 16.0 | 0.00 | 0.00 | 0.00 | 50 | 1014.1 |
| 20260904171437 | 92 | 193 | 4.0 | 13.0 | 0.00 | 0.00 | 0.00 | 51 | 1014.1 |
| 20260904170944 | 92 | 148 | 6.0 | 13.0 | 0.00 | 0.00 | 0.00 | 51 | 1014.3 |
| 20260904170433 | 91 | 201 | 3.0 | 10.0 | 0.00 | 0.00 | 0.00 | 53 | 1014.4 |
| 20260904165936 | 92 | 172 | 6.0 | 12.0 | 0.00 | 0.00 | 0.00 | 50 | 1014.3 |
| 20260904165439 | 91 | 199 | 7.0 | 12.0 | 0.00 | 0.00 | 0.00 | 50 | 1014.3 |
| 20260904164944 | 91 | 239 | 4.0 | 14.0 | 0.00 | 0.00 | 0.00 | 51 | 1014.4 |
| 20260904164430 | 91 | 243 | 7.0 | 14.0 | 0.00 | 0.00 | 0.00 | 55 | 1014.4 |
| 20260904163939 | 90 | 209 | 5.0 | 11.0 | 0.00 | 0.00 | 0.00 | 55 | 1014.4 |
| 20260904163503 | 89 | 190 | 7.0 | 11.0 | 0.00 | 0.00 | 0.00 | 57 | 1014.5 |
| 20260904162929 | 88 | 204 | 6.0 | 10.0 | 0.00 | 0.00 | 0.00 | 59 | 1014.4 |
| 20260904162433 | 88 | 214 | 4.0 | 7.0 | 0.00 | 0.00 | 0.00 | 60 | 1014.5 |
| 20260904161937 | 88 | 212 | 5.0 | 10.0 | 0.00 | 0.00 | 0.00 | 60 | 1014.6 |
| 20260904161444 | 88 | 200 | 7.0 | 11.0 | 0.00 | 0.00 | 0.00 | 61 | 1014.4 |
| 20260904160949 | 88 | 210 | 7.0 | 12.0 | 0.00 | 0.00 | 0.00 | 61 | 1014.5 |
| 20260904160432 | 88 | 207 | 7.0 | 13.0 | 0.00 | 0.00 | 0.00 | 61 | 1014.5 |
| 20260904155937 | 88 | 212 | 8.0 | 13.0 | 0.00 | 0.00 | 0.00 | 63 | 1014.5 |
| 20260904155425 | 87 | 208 | 7.0 | 12.0 | 0.00 | 0.00 | 0.00 | 64 | 1014.5 |
| 20260904155001 | 88 | 199 | 9.0 | 15.0 | 0.00 | 0.00 | 0.00 | 62 | 1014.3 |
| 20260904154427 | 87 | 193 | 9.0 | 15.0 | 0.00 | 0.00 | 0.00 | 62 | 1014.3 |
| 20260904153938 | 87 | 224 | 6.0 | 10.0 | 0.00 | 0.00 | 0.00 | 65 | 1014.4 |
| 20260904153445 | 87 | 229 | 7.0 | 11.0 | 0.00 | 0.00 | 0.00 | 64 | 1014.4 |
| 20260904152953 | 86 | 223 | 6.0 | 11.0 | 0.00 | 0.00 | 0.00 | 66 | 1014.4 |
| 20260904152440 | 86 | 213 | 5.0 | 11.0 | 0.00 | 0.00 | 0.00 | 70 | 1014.4 |
| 20260904151927 | 85 | 220 | 7.0 | 11.0 | 0.00 | 0.00 | 0.00 | 70 | 1014.4 |
| 20260904151449 | 85 | 166 | 3.0 | 7.0 | 0.00 | 0.00 | 0.00 | 71 | 1014.4 |
| 20260904150956 | 85 | 158 | 4.0 | 12.0 | 0.00 | 0.00 | 0.00 | 71 | 1014.4 |
| 20260904150426 | 84 | 220 | 3.0 | 12.0 | 0.00 | 0.00 | 0.00 | 69 | 1014.4 |
| 20260904145935 | 84 | 141 | 5.0 | 11.0 | 0.00 | 0.00 | 0.00 | 69 | 1014.3 |
| 20260904145439 | 84 | 202 | 4.0 | 11.0 | 0.00 | 0.00 | 0.00 | 72 | 1014.3 |
| 20260904144927 | 84 | 179 | 6.0 | 11.0 | 0.00 | 0.00 | 0.00 | 71 | 1014.3 |
| 20260904144433 | 84 | 218 | 5.0 | 9.0 | 0.00 | 0.00 | 0.00 | 72 | 1014.3 |
| 20260904143935 | 83 | 203 | 3.0 | 11.0 | 0.00 | 0.00 | 0.00 | 75 | 1014.3 |
| 20260904143439 | 83 | 204 | 5.0 | 11.0 | 0.00 | 0.00 | 0.00 | 74 | 1014.2 |
| 20260904142946 | 83 | 142 | 5.0 | 11.0 | 0.00 | 0.00 | 0.00 | 76 | 1014.1 |
| 20260904142500 | 83 | 153 | 3.0 | 9.0 | 0.00 | 0.00 | 0.00 | 77 | 1014.1 |
| 20260904141927 | 83 | 148 | 3.0 | 10.0 | 0.00 | 0.00 | 0.00 | 77 | 1014.2 |
| 20260904141432 | 83 | 122 | 5.0 | 10.0 | 0.00 | 0.00 | 0.00 | 76 | 1014.2 |
| 20260904140939 | 83 | 143 | 5.0 | 7.0 | 0.00 | 0.00 | 0.00 | 77 | 1014.2 |
| 20260904140428 | 82 | 133 | 3.0 | 6.0 | 0.00 | 0.00 | 0.00 | 79 | 1014.2 |
| 20260904135930 | 81 | 166 | 3.0 | 8.0 | 0.00 | 0.00 | 0.00 | 80 | 1014.1 |
| 20260904135439 | 81 | 143 | 6.0 | 10.0 | 0.00 | 0.00 | 0.00 | 80 | 1014.2 |
| 20260904135010 | 81 | 163 | 4.0 | 10.0 | 0.00 | 0.00 | 0.00 | 80 | 1014.1 |
| 20260904134429 | 81 | 168 | 3.0 | 6.0 | 0.00 | 0.00 | 0.00 | 80 | 1014.0 |
| 20260904133938 | 81 | 141 | 3.0 | 6.0 | 0.00 | 0.00 | 0.00 | 80 | 1013.9 |
| 20260904133447 | 81 | 137 | 2.0 | 7.0 | 0.00 | 0.00 | 0.00 | 80 | 1013.9 |
| 20260904132932 | 80 | 127 | 3.0 | 7.0 | 0.00 | 0.00 | 0.00 | 80 | 1013.8 |
| 20260904132435 | 80 | 144 | 3.0 | 7.0 | 0.00 | 0.00 | 0.00 | 81 | 1013.8 |
| 20260904131940 | 80 | 174 | 4.0 | 9.0 | 0.00 | 0.00 | 0.00 | 81 | 1013.7 |
| 20260904131431 | 80 | 176 | 4.0 | 7.0 | 0.00 | 0.00 | 0.00 | 81 | 1013.7 |
| 20260904130940 | 80 | 148 | 4.0 | 10.0 | 0.00 | 0.00 | 0.00 | 81 | 1013.6 |
| 20260904130448 | 80 | 134 | 5.0 | 10.0 | 0.00 | 0.00 | 0.00 | 81 | 1013.6 |
| 20260904125936 | 80 | 118 | 4.0 | 9.0 | 0.00 | 0.00 | 0.00 | 81 | 1013.6 |
| 20260904125441 | 80 | 141 | 5.0 | 9.0 | 0.00 | 0.00 | 0.00 | 80 | 1013.5 |
| 20260904124944 | 80 | 118 | 5.0 | 8.0 | 0.00 | 0.00 | 0.00 | 80 | 1013.5 |
| 20260904124428 | 80 | 124 | 5.0 | 7.0 | 0.00 | 0.00 | 0.00 | 80 | 1013.4 |
| 20260904123933 | 80 | 135 | 5.0 | 7.0 | 0.00 | 0.00 | 0.00 | 80 | 1013.4 |
| 20260904123441 | 80 | 130 | 4.0 | 6.0 | 0.00 | 0.00 | 0.00 | 80 | 1013.4 |
| 20260904122925 | 80 | 148 | 2.0 | 7.0 | 0.00 | 0.00 | 0.00 | 80 | 1013.4 |
| 20260904122436 | 80 | 136 | 4.0 | 7.0 | 0.00 | 0.00 | 0.00 | 80 | 1013.3 |
| 20260904121934 | 80 | 112 | 5.0 | 11.0 | 0.00 | 0.00 | 0.00 | 80 | 1013.3 |
| 20260904121443 | 80 | 122 | 5.0 | 11.0 | 0.00 | 0.00 | 0.00 | 80 | 1013.2 |
| 20260904120929 | 80 | 122 | 5.0 | 9.0 | 0.00 | 0.00 | 0.00 | 80 | 1013.2 |
| 20260904120441 | 80 | 130 | 4.0 | 7.0 | 0.00 | 0.00 | 0.00 | 80 | 1013.1 |
| 20260904115929 | 80 | 139 | 4.0 | 6.0 | 0.00 | 0.00 | 0.00 | 80 | 1013.2 |
| 20260904115430 | 80 | 116 | 3.0 | 7.0 | 0.00 | 0.00 | 0.00 | 80 | 1013.1 |
| 20260904114934 | 80 | 123 | 4.0 | 7.0 | 0.00 | 0.00 | 0.00 | 80 | 1013.0 |
| 20260904114440 | 80 | 127 | 5.0 | 7.0 | 0.00 | 0.00 | 0.00 | 80 | 1013.0 |
| 20260904113945 | 80 | 139 | 2.0 | 7.0 | 0.00 | 0.00 | 0.00 | 79 | 1013.0 |
| 20260904113428 | 80 | 142 | 4.0 | 8.0 | 0.00 | 0.00 | 0.00 | 79 | 1013.0 |
| 20260904112934 | 80 | 116 | 5.0 | 8.0 | 0.00 | 0.00 | 0.00 | 79 | 1012.9 |
| 20260904112442 | 80 | 148 | 3.0 | 6.0 | 0.00 | 0.00 | 0.00 | 79 | 1013.0 |
| 20260904111946 | 80 | 148 | 3.0 | 9.0 | 0.00 | 0.00 | 0.00 | 79 | 1012.9 |
| 20260904111431 | 80 | 190 | 5.0 | 9.0 | 0.00 | 0.00 | 0.00 | 79 | 1012.8 |
| 20260904110936 | 80 | 179 | 3.0 | 9.0 | 0.00 | 0.00 | 0.00 | 79 | 1012.9 |
| 20260904110440 | 80 | 182 | 5.0 | 9.0 | 0.00 | 0.00 | 0.00 | 79 | 1012.8 |
| 20260904105925 | 80 | 198 | 5.0 | 11.0 | 0.00 | 0.00 | 0.00 | 79 | 1012.7 |
| 20260904105434 | 80 | 166 | 6.0 | 11.0 | 0.00 | 0.00 | 0.00 | 79 | 1012.8 |
| 20260904104944 | 80 | 122 | 4.0 | 6.0 | 0.00 | 0.00 | 0.00 | 79 | 1012.8 |
| 20260904104450 | 80 | 133 | 2.0 | 5.0 | 0.00 | 0.00 | 0.00 | 79 | 1012.9 |
| 20260904103932 | 80 | 134 | 3.0 | 7.0 | 0.00 | 0.00 | 0.00 | 79 | 1012.8 |
| 20260904103439 | 80 | 144 | 3.0 | 7.0 | 0.00 | 0.00 | 0.00 | 79 | 1012.9 |
| 20260904102943 | 80 | 153 | 3.0 | 9.0 | 0.00 | 0.00 | 0.00 | 79 | 1012.8 |
| 20260904102433 | 80 | 197 | 4.0 | 9.0 | 0.00 | 0.00 | 0.00 | 79 | 1012.7 |
| 20260904101943 | 80 | 168 | 5.0 | 7.0 | 0.00 | 0.00 | 0.00 | 79 | 1012.7 |
| 20260904101432 | 80 | 175 | 4.0 | 9.0 | 0.00 | 0.00 | 0.00 | 79 | 1012.6 |
| 20260904100942 | 80 | 181 | 6.0 | 9.0 | 0.00 | 0.00 | 0.00 | 79 | 1012.6 |
| 20260904100426 | 80 | 232 | 4.0 | 7.0 | 0.00 | 0.00 | 0.00 | 79 | 1012.5 |